owner,sensor,date,latitude,longitude,vertical_datum,direction_of_sea_water_velocity,sea_water_speed,upward_sea_water_velocity,qcFlag 
TABS,ioos:station:wmo:42043:1,2001-12-01T00:00:00Z,28.9818,-94.9186,2.0,204.5308161,25.57884477,-99999.0,'11111222,11111222,99999999' 
TABS,ioos:station:wmo:42043:1,2001-12-01T00:30:00Z,28.9818,-94.9186,2.0,204.8396944,27.78008279,-99999.0,'11111222,11111222,99999999' 
TABS,ioos:station:wmo:42043:1,2001-12-01T01:00:00Z,28.9818,-94.9186,2.0,204.6455712,26.30644408,-99999.0,'11111222,11111222,99999999' 
TABS,ioos:station:wmo:42043:1,2001-12-01T01:30:00Z,28.9818,-94.9186,2.0,207.5211354,22.50692338,-99999.0,'11111222,11111222,99999999' 
TABS,ioos:station:wmo:42043:1,2001-12-01T02:00:00Z,28.9818,-94.9186,2.0,210.1550135,25.28140819,-99999.0,'11111222,11111222,99999999' 
TABS,ioos:station:wmo:42043:1,2001-12-01T02:30:00Z,28.9818,-94.9186,2.0,213.5061902,19.90829224,-99999.0,'11111222,11111222,99999999' 
TABS,ioos:station:wmo:42043:1,2001-12-01T03:00:00Z,28.9818,-94.9186,2.0,213.6804528,17.04039025,-99999.0,'11111222,11111222,99999999' 
TABS,ioos:station:wmo:42043:1,2001-12-01T03:30:00Z,28.9818,-94.9186,2.0,215.2848513,17.93485991,-99999.0,'11111222,11111222,99999999' 
TABS,ioos:station:wmo:42043:1,2001-12-01T04:00:00Z,28.9818,-94.9186,2.0,232.2810965,18.63404411,-99999.0,'11111222,11111222,99999999' 
TABS,ioos:station:wmo:42043:1,2001-12-01T04:30:00Z,28.9818,-94.9186,2.0,232.3655526,19.1937073,-99999.0,'11111222,11111222,99999999' 
TABS,ioos:station:wmo:42043:1,2001-12-01T05:00:00Z,28.9818,-94.9186,2.0,233.2298627,19.4620297,-99999.0,'11111222,11111222,99999999' 
TABS,ioos:station:wmo:42043:1,2001-12-01T05:30:00Z,28.9818,-94.9186,2.0,231.6868437,20.8886237,-99999.0,'11111222,11111222,99999999' 
TABS,ioos:station:wmo:42043:1,2001-12-01T06:00:00Z,28.9818,-94.9186,2.0,230.6406977,20.86168258,-99999.0,'11111222,11111222,99999999' 
TABS,ioos:station:wmo:42043:1,2001-12-01T06:30:00Z,28.9818,-94.9186,2.0,221.8783424,18.82990441,-99999.0,'11111222,11111222,99999999' 
TABS,ioos:station:wmo:42043:1,2001-12-01T07:00:00Z,28.9818,-94.9186,2.0,219.5772718,19.30555361,-99999.0,'11111222,11111222,99999999' 
TABS,ioos:station:wmo:42043:1,2001-12-01T07:30:00Z,28.9818,-94.9186,2.0,212.9235012,21.36064138,-99999.0,'11111222,11111222,99999999' 
TABS,ioos:station:wmo:42043:1,2001-12-01T08:00:00Z,28.9818,-94.9186,2.0,215.502848,21.21403545,-99999.0,'11111222,11111222,99999999' 
TABS,ioos:station:wmo:42043:1,2001-12-01T08:30:00Z,28.9818,-94.9186,2.0,213.1334171,27.99149156,-99999.0,'11111222,11111222,99999999' 
TABS,ioos:station:wmo:42043:1,2001-12-01T09:00:00Z,28.9818,-94.9186,2.0,214.1947117,30.21291942,-99999.0,'11111222,11111222,99999999' 
TABS,ioos:station:wmo:42043:1,2001-12-01T09:30:00Z,28.9818,-94.9186,2.0,211.0897727,31.12020887,-99999.0,'11111222,11111222,99999999' 
TABS,ioos:station:wmo:42043:1,2001-12-01T10:00:00Z,28.9818,-94.9186,2.0,213.6074848,32.82719147,-99999.0,'11111222,11111222,99999999' 
TABS,ioos:station:wmo:42043:1,2001-12-01T10:30:00Z,28.9818,-94.9186,2.0,210.1018445,35.0119651,-99999.0,'11111222,11111222,99999999' 
TABS,ioos:station:wmo:42043:1,2001-12-01T11:00:00Z,28.9818,-94.9186,2.0,205.6148281,36.68550122,-99999.0,'11111222,11111222,99999999' 
TABS,ioos:station:wmo:42043:1,2001-12-01T11:30:00Z,28.9818,-94.9186,2.0,206.8761265,36.21141947,-99999.0,'11111222,11111222,99999999' 
TABS,ioos:station:wmo:42043:1,2001-12-01T12:00:00Z,28.9818,-94.9186,2.0,205.181391,37.60373519,-99999.0,'11111222,11111222,99999999' 
TABS,ioos:station:wmo:42043:1,2001-12-01T12:30:00Z,28.9818,-94.9186,2.0,204.0066561,39.27766286,-99999.0,'11111222,11111222,99999999' 
TABS,ioos:station:wmo:42043:1,2001-12-01T13:00:00Z,28.9818,-94.9186,2.0,206.8683374,39.67287486,-99999.0,'11111222,11111222,99999999' 
TABS,ioos:station:wmo:42043:1,2001-12-01T13:30:00Z,28.9818,-94.9186,2.0,209.1554127,42.94061481,-99999.0,'11111222,11111222,99999999' 
TABS,ioos:station:wmo:42043:1,2001-12-01T14:00:00Z,28.9818,-94.9186,2.0,212.2262439,42.56771194,-99999.0,'11111222,11111222,99999999' 
TABS,ioos:station:wmo:42043:1,2001-12-01T14:30:00Z,28.9818,-94.9186,2.0,215.9734767,43.22328655,-99999.0,'11111222,11111222,99999999' 
TABS,ioos:station:wmo:42043:1,2001-12-01T15:00:00Z,28.9818,-94.9186,2.0,216.5616959,41.68260189,-99999.0,'11111222,11111222,99999999' 
TABS,ioos:station:wmo:42043:1,2001-12-01T15:30:00Z,28.9818,-94.9186,2.0,217.7446529,39.41859713,-99999.0,'11111222,11111222,99999999' 
TABS,ioos:station:wmo:42043:1,2001-12-01T16:00:00Z,28.9818,-94.9186,2.0,218.5773586,42.48086864,-99999.0,'11111222,11111222,99999999' 
TABS,ioos:station:wmo:42043:1,2001-12-01T16:30:00Z,28.9818,-94.9186,2.0,221.582095,41.87154762,-99999.0,'11111222,11111222,99999999' 
TABS,ioos:station:wmo:42043:1,2001-12-01T17:00:00Z,28.9818,-94.9186,2.0,226.7942352,40.86960362,-99999.0,'11111222,11111222,99999999' 
TABS,ioos:station:wmo:42043:1,2001-12-01T17:30:00Z,28.9818,-94.9186,2.0,230.6198305,41.01134477,-99999.0,'11111222,11111222,99999999' 
TABS,ioos:station:wmo:42043:1,2001-12-01T18:00:00Z,28.9818,-94.9186,2.0,235.7721028,43.1658951,-99999.0,'11111222,11111222,99999999' 
TABS,ioos:station:wmo:42043:1,2001-12-01T18:30:00Z,28.9818,-94.9186,2.0,242.4938299,42.76385623,-99999.0,'11111222,11111222,99999999' 
TABS,ioos:station:wmo:42043:1,2001-12-01T19:00:00Z,28.9818,-94.9186,2.0,244.3677977,42.83532771,-99999.0,'11111222,11111222,99999999' 
TABS,ioos:station:wmo:42043:1,2001-12-01T19:30:00Z,28.9818,-94.9186,2.0,248.1216453,43.07207216,-99999.0,'11111222,11111222,99999999' 
TABS,ioos:station:wmo:42043:1,2001-12-01T20:00:00Z,28.9818,-94.9186,2.0,248.395161,44.8401182,-99999.0,'11111222,11111222,99999999' 
TABS,ioos:station:wmo:42043:1,2001-12-01T20:30:00Z,28.9818,-94.9186,2.0,249.9228757,37.63706816,-99999.0,'11111222,11111222,99999999' 
TABS,ioos:station:wmo:42043:1,2001-12-01T21:00:00Z,28.9818,-94.9186,2.0,249.9712084,34.57073907,-99999.0,'11111222,11111222,99999999' 
TABS,ioos:station:wmo:42043:1,2001-12-01T21:30:00Z,28.9818,-94.9186,2.0,251.0977809,38.03081382,-99999.0,'11111222,11111222,99999999' 
TABS,ioos:station:wmo:42043:1,2001-12-01T22:00:00Z,28.9818,-94.9186,2.0,251.3856681,39.47490469,-99999.0,'11111222,11111222,99999999' 
TABS,ioos:station:wmo:42043:1,2001-12-01T22:30:00Z,28.9818,-94.9186,2.0,252.4336861,34.19447909,-99999.0,'11111222,11111222,99999999' 
TABS,ioos:station:wmo:42043:1,2001-12-01T23:00:00Z,28.9818,-94.9186,2.0,248.2009548,38.91245816,-99999.0,'11111222,11111222,99999999' 
TABS,ioos:station:wmo:42043:1,2001-12-01T23:30:00Z,28.9818,-94.9186,2.0,247.5538903,34.67708321,-99999.0,'11111222,11111222,99999999' 
TABS,ioos:station:wmo:42043:1,2001-12-02T00:00:00Z,28.9818,-94.9186,2.0,246.2065849,34.67726921,-99999.0,'11111222,11111222,99999999' 
TABS,ioos:station:wmo:42043:1,2001-12-02T00:30:00Z,28.9818,-94.9186,2.0,246.3759087,29.02214672,-99999.0,'11111222,11111222,99999999' 
TABS,ioos:station:wmo:42043:1,2001-12-02T01:00:00Z,28.9818,-94.9186,2.0,247.5962068,28.10096973,-99999.0,'11111222,11111222,99999999' 
TABS,ioos:station:wmo:42043:1,2001-12-02T01:30:00Z,28.9818,-94.9186,2.0,249.1484699,30.90395444,-99999.0,'11111222,11111222,99999999' 
TABS,ioos:station:wmo:42043:1,2001-12-02T02:00:00Z,28.9818,-94.9186,2.0,245.3791212,28.46812252,-99999.0,'11111222,11111222,99999999' 
TABS,ioos:station:wmo:42043:1,2001-12-02T02:30:00Z,28.9818,-94.9186,2.0,248.2513508,30.03809082,-99999.0,'11111222,11111222,99999999' 
TABS,ioos:station:wmo:42043:1,2001-12-02T03:00:00Z,28.9818,-94.9186,2.0,249.1184414,22.89361701,-99999.0,'11111222,11111222,99999999' 
TABS,ioos:station:wmo:42043:1,2001-12-02T03:30:00Z,28.9818,-94.9186,2.0,250.6704895,20.06077017,-99999.0,'11111222,11111222,99999999' 
TABS,ioos:station:wmo:42043:1,2001-12-02T04:00:00Z,28.9818,-94.9186,2.0,252.9704645,24.61941713,-99999.0,'11111222,11111222,99999999' 
TABS,ioos:station:wmo:42043:1,2001-12-02T04:30:00Z,28.9818,-94.9186,2.0,254.938926,24.55338062,-99999.0,'11111222,11111222,99999999' 
TABS,ioos:station:wmo:42043:1,2001-12-02T05:00:00Z,28.9818,-94.9186,2.0,248.8655802,23.43634144,-99999.0,'11111222,11111222,99999999' 
TABS,ioos:station:wmo:42043:1,2001-12-02T05:30:00Z,28.9818,-94.9186,2.0,253.0598845,21.45070861,-99999.0,'11111222,11111222,99999999' 
TABS,ioos:station:wmo:42043:1,2001-12-02T06:00:00Z,28.9818,-94.9186,2.0,251.296521,22.29746398,-99999.0,'11111222,11111222,99999999' 
TABS,ioos:station:wmo:42043:1,2001-12-02T06:30:00Z,28.9818,-94.9186,2.0,257.0179418,19.89856779,-99999.0,'11111222,11111222,99999999' 
TABS,ioos:station:wmo:42043:1,2001-12-02T07:00:00Z,28.9818,-94.9186,2.0,254.4453934,16.29683712,-99999.0,'11111222,11111222,99999999' 
TABS,ioos:station:wmo:42043:1,2001-12-02T07:30:00Z,28.9818,-94.9186,2.0,244.1871989,13.61882888,-99999.0,'11111222,11111222,99999999' 
TABS,ioos:station:wmo:42043:1,2001-12-02T08:00:00Z,28.9818,-94.9186,2.0,232.5154957,22.75930799,-99999.0,'11111222,11111222,99999999' 
TABS,ioos:station:wmo:42043:1,2001-12-02T08:30:00Z,28.9818,-94.9186,2.0,229.5939269,22.24634801,-99999.0,'11111222,11111222,99999999' 
TABS,ioos:station:wmo:42043:1,2001-12-02T09:00:00Z,28.9818,-94.9186,2.0,223.0270986,23.82947754,-99999.0,'11111222,11111222,99999999' 
TABS,ioos:station:wmo:42043:1,2001-12-02T09:30:00Z,28.9818,-94.9186,2.0,221.8909468,23.07857231,-99999.0,'11111222,11111222,99999999' 
TABS,ioos:station:wmo:42043:1,2001-12-02T10:00:00Z,28.9818,-94.9186,2.0,222.7783029,29.00610453,-99999.0,'11111222,11111222,99999999' 
TABS,ioos:station:wmo:42043:1,2001-12-02T10:30:00Z,28.9818,-94.9186,2.0,226.4706359,28.92312742,-99999.0,'11111222,11111222,99999999' 
TABS,ioos:station:wmo:42043:1,2001-12-02T11:00:00Z,28.9818,-94.9186,2.0,227.1120906,31.07724891,-99999.0,'11111222,11111222,99999999' 
TABS,ioos:station:wmo:42043:1,2001-12-02T11:30:00Z,28.9818,-94.9186,2.0,225.9593748,37.57385394,-99999.0,'11111222,11111222,99999999' 
TABS,ioos:station:wmo:42043:1,2001-12-02T12:00:00Z,28.9818,-94.9186,2.0,224.2543699,41.85719174,-99999.0,'11111222,11111222,99999999' 
TABS,ioos:station:wmo:42043:1,2001-12-02T12:30:00Z,28.9818,-94.9186,2.0,220.4826316,41.480446,-99999.0,'11111222,11111222,99999999' 
TABS,ioos:station:wmo:42043:1,2001-12-02T13:00:00Z,28.9818,-94.9186,2.0,228.5945133,49.16995831,-99999.0,'11111222,11111222,99999999' 
TABS,ioos:station:wmo:42043:1,2001-12-02T13:30:00Z,28.9818,-94.9186,2.0,232.5892744,69.11707531,-99999.0,'11111222,11111222,99999999' 
TABS,ioos:station:wmo:42043:1,2001-12-02T14:00:00Z,28.9818,-94.9186,2.0,233.5942496,73.76642393,-99999.0,'11111222,11111222,99999999' 
TABS,ioos:station:wmo:42043:1,2001-12-02T14:30:00Z,28.9818,-94.9186,2.0,233.3528339,80.65261124,-99999.0,'11111222,11111222,99999999' 
TABS,ioos:station:wmo:42043:1,2001-12-02T15:00:00Z,28.9818,-94.9186,2.0,238.121167,64.13320903,-99999.0,'11111222,11111222,99999999' 
TABS,ioos:station:wmo:42043:1,2001-12-02T15:30:00Z,28.9818,-94.9186,2.0,236.7447444,71.9411433,-99999.0,'11111222,11111222,99999999' 
TABS,ioos:station:wmo:42043:1,2001-12-02T16:00:00Z,28.9818,-94.9186,2.0,240.7185848,76.91769952,-99999.0,'11111222,11111222,99999999' 
TABS,ioos:station:wmo:42043:1,2001-12-02T16:30:00Z,28.9818,-94.9186,2.0,244.2343288,75.29574357,-99999.0,'11111222,11111222,99999999' 
TABS,ioos:station:wmo:42043:1,2001-12-02T17:00:00Z,28.9818,-94.9186,2.0,245.8513737,79.54060598,-99999.0,'11111222,11111222,99999999' 
TABS,ioos:station:wmo:42043:1,2001-12-02T17:30:00Z,28.9818,-94.9186,2.0,249.9019229,74.32584746,-99999.0,'11111222,11111222,99999999' 
TABS,ioos:station:wmo:42043:1,2001-12-02T18:00:00Z,28.9818,-94.9186,2.0,249.9031205,72.08913164,-99999.0,'11111222,11111222,99999999' 
TABS,ioos:station:wmo:42043:1,2001-12-02T18:30:00Z,28.9818,-94.9186,2.0,252.0340655,69.86654493,-99999.0,'11111222,11111222,99999999' 
TABS,ioos:station:wmo:42043:1,2001-12-02T19:00:00Z,28.9818,-94.9186,2.0,253.7083984,62.8120092,-99999.0,'11111222,11111222,99999999' 
TABS,ioos:station:wmo:42043:1,2001-12-02T19:30:00Z,28.9818,-94.9186,2.0,253.2803201,60.20513267,-99999.0,'11111222,11111222,99999999' 
TABS,ioos:station:wmo:42043:1,2001-12-02T20:00:00Z,28.9818,-94.9186,2.0,253.1193514,60.02631506,-99999.0,'11111222,11111222,99999999' 
TABS,ioos:station:wmo:42043:1,2001-12-02T20:30:00Z,28.9818,-94.9186,2.0,252.2937308,57.40947396,-99999.0,'11111222,11111222,99999999' 
TABS,ioos:station:wmo:42043:1,2001-12-02T21:00:00Z,28.9818,-94.9186,2.0,249.6655136,54.38942912,-99999.0,'11111222,11111222,99999999' 
TABS,ioos:station:wmo:42043:1,2001-12-02T21:30:00Z,28.9818,-94.9186,2.0,247.0040484,58.18355867,-99999.0,'11111222,11111222,99999999' 
TABS,ioos:station:wmo:42043:1,2001-12-02T22:00:00Z,28.9818,-94.9186,2.0,245.3552022,60.31380356,-99999.0,'11111222,11111222,99999999' 
TABS,ioos:station:wmo:42043:1,2001-12-02T22:30:00Z,28.9818,-94.9186,2.0,244.2759936,57.25398589,-99999.0,'11111222,11111222,99999999' 
TABS,ioos:station:wmo:42043:1,2001-12-02T23:00:00Z,28.9818,-94.9186,2.0,242.931529,51.44496282,-99999.0,'11111222,11111222,99999999' 
TABS,ioos:station:wmo:42043:1,2001-12-02T23:30:00Z,28.9818,-94.9186,2.0,238.3764059,54.83172987,-99999.0,'11111222,11111222,99999999' 
TABS,ioos:station:wmo:42043:1,2001-12-03T00:00:00Z,28.9818,-94.9186,2.0,235.2883972,49.48711752,-99999.0,'11111222,11111222,99999999' 
TABS,ioos:station:wmo:42043:1,2001-12-03T00:30:00Z,28.9818,-94.9186,2.0,229.0582616,48.05528171,-99999.0,'11111222,11111222,99999999' 
TABS,ioos:station:wmo:42043:1,2001-12-03T01:00:00Z,28.9818,-94.9186,2.0,227.6317102,46.19452132,-99999.0,'11111222,11111222,99999999' 
TABS,ioos:station:wmo:42043:1,2001-12-03T01:30:00Z,28.9818,-94.9186,2.0,229.8099133,46.2095488,-99999.0,'11111222,11111222,99999999' 
TABS,ioos:station:wmo:42043:1,2001-12-03T02:00:00Z,28.9818,-94.9186,2.0,229.0771766,46.24162303,-99999.0,'11111222,11111222,99999999' 
TABS,ioos:station:wmo:42043:1,2001-12-03T02:30:00Z,28.9818,-94.9186,2.0,233.3051375,43.12620201,-99999.0,'11111222,11111222,99999999' 
TABS,ioos:station:wmo:42043:1,2001-12-03T03:00:00Z,28.9818,-94.9186,2.0,233.2229223,41.82405528,-99999.0,'11111222,11111222,99999999' 
TABS,ioos:station:wmo:42043:1,2001-12-03T03:30:00Z,28.9818,-94.9186,2.0,229.6687856,40.21935479,-99999.0,'11111222,11111222,99999999' 
TABS,ioos:station:wmo:42043:1,2001-12-03T04:00:00Z,28.9818,-94.9186,2.0,226.1714289,38.03615648,-99999.0,'11111222,11111222,99999999' 
TABS,ioos:station:wmo:42043:1,2001-12-03T04:30:00Z,28.9818,-94.9186,2.0,224.207337,38.3500678,-99999.0,'11111222,11111222,99999999' 
TABS,ioos:station:wmo:42043:1,2001-12-03T05:00:00Z,28.9818,-94.9186,2.0,222.8871067,38.74750315,-99999.0,'11111222,11111222,99999999' 
TABS,ioos:station:wmo:42043:1,2001-12-03T05:30:00Z,28.9818,-94.9186,2.0,222.4380842,39.07841476,-99999.0,'11111222,11111222,99999999' 
TABS,ioos:station:wmo:42043:1,2001-12-03T06:00:00Z,28.9818,-94.9186,2.0,222.9178803,38.93071024,-99999.0,'11111222,11111222,99999999' 
TABS,ioos:station:wmo:42043:1,2001-12-03T06:30:00Z,28.9818,-94.9186,2.0,226.8209825,40.71456373,-99999.0,'11111222,11111222,99999999' 
TABS,ioos:station:wmo:42043:1,2001-12-03T07:00:00Z,28.9818,-94.9186,2.0,223.6403817,37.55793924,-99999.0,'11111222,11111222,99999999' 
TABS,ioos:station:wmo:42043:1,2001-12-03T07:30:00Z,28.9818,-94.9186,2.0,221.5202739,38.33220708,-99999.0,'11111222,11111222,99999999' 
TABS,ioos:station:wmo:42043:1,2001-12-03T08:00:00Z,28.9818,-94.9186,2.0,225.6259945,43.34116404,-99999.0,'11111222,11111222,99999999' 
TABS,ioos:station:wmo:42043:1,2001-12-03T08:30:00Z,28.9818,-94.9186,2.0,225.6946484,43.72362862,-99999.0,'11111222,11111222,99999999' 
TABS,ioos:station:wmo:42043:1,2001-12-03T09:00:00Z,28.9818,-94.9186,2.0,223.139843,42.70346122,-99999.0,'11111222,11111222,99999999' 
TABS,ioos:station:wmo:42043:1,2001-12-03T09:30:00Z,28.9818,-94.9186,2.0,222.5373542,45.26126931,-99999.0,'11111222,11111222,99999999' 
TABS,ioos:station:wmo:42043:1,2001-12-03T10:00:00Z,28.9818,-94.9186,2.0,223.7677987,49.00675566,-99999.0,'11111222,11111222,99999999' 
TABS,ioos:station:wmo:42043:1,2001-12-03T10:30:00Z,28.9818,-94.9186,2.0,227.4698504,52.66475197,-99999.0,'11111222,11111222,99999999' 
TABS,ioos:station:wmo:42043:1,2001-12-03T11:00:00Z,28.9818,-94.9186,2.0,227.1233188,58.96370494,-99999.0,'11111222,11111222,99999999' 
TABS,ioos:station:wmo:42043:1,2001-12-03T11:30:00Z,28.9818,-94.9186,2.0,227.8442916,60.27026547,-99999.0,'11111222,11111222,99999999' 
TABS,ioos:station:wmo:42043:1,2001-12-03T12:00:00Z,28.9818,-94.9186,2.0,227.9158786,63.93453683,-99999.0,'11111222,11111222,99999999' 
TABS,ioos:station:wmo:42043:1,2001-12-03T12:30:00Z,28.9818,-94.9186,2.0,229.6587599,64.68065321,-99999.0,'11111222,11111222,99999999' 
TABS,ioos:station:wmo:42043:1,2001-12-03T13:00:00Z,28.9818,-94.9186,2.0,229.7905926,62.9047987,-99999.0,'11111222,11111222,99999999' 
TABS,ioos:station:wmo:42043:1,2001-12-03T13:30:00Z,28.9818,-94.9186,2.0,231.3800405,64.58411337,-99999.0,'11111222,11111222,99999999' 
TABS,ioos:station:wmo:42043:1,2001-12-03T14:00:00Z,28.9818,-94.9186,2.0,234.5832876,60.94761111,-99999.0,'11111222,11111222,99999999' 
TABS,ioos:station:wmo:42043:1,2001-12-03T14:30:00Z,28.9818,-94.9186,2.0,237.5650517,49.24146322,-99999.0,'11111222,11111222,99999999' 
TABS,ioos:station:wmo:42043:1,2001-12-03T15:00:00Z,28.9818,-94.9186,2.0,239.9872112,44.62322265,-99999.0,'11111222,11111222,99999999' 
TABS,ioos:station:wmo:42043:1,2001-12-03T15:30:00Z,28.9818,-94.9186,2.0,248.5061257,38.70132427,-99999.0,'11111222,11111222,99999999' 
TABS,ioos:station:wmo:42043:1,2001-12-03T16:00:00Z,28.9818,-94.9186,2.0,246.6313819,30.15334144,-99999.0,'11111222,11111222,99999999' 
TABS,ioos:station:wmo:42043:1,2001-12-03T16:30:00Z,28.9818,-94.9186,2.0,252.755704,30.73132929,-99999.0,'11111222,11111222,99999999' 
TABS,ioos:station:wmo:42043:1,2001-12-03T17:00:00Z,28.9818,-94.9186,2.0,253.1948805,26.01077469,-99999.0,'11111222,11111222,99999999' 
TABS,ioos:station:wmo:42043:1,2001-12-03T17:30:00Z,28.9818,-94.9186,2.0,255.1780655,19.81944752,-99999.0,'11111222,11111222,99999999' 
TABS,ioos:station:wmo:42043:1,2001-12-03T18:00:00Z,28.9818,-94.9186,2.0,271.9212013,16.40921997,-99999.0,'11111222,11111222,99999999' 
TABS,ioos:station:wmo:42043:1,2001-12-03T18:30:00Z,28.9818,-94.9186,2.0,276.4446086,17.64146536,-99999.0,'11111222,11111222,99999999' 
TABS,ioos:station:wmo:42043:1,2001-12-03T19:00:00Z,28.9818,-94.9186,2.0,290.2075692,14.41739574,-99999.0,'11111222,11111222,99999999' 
TABS,ioos:station:wmo:42043:1,2001-12-03T19:30:00Z,28.9818,-94.9186,2.0,304.3411667,11.96565502,-99999.0,'11111222,11111222,99999999' 
TABS,ioos:station:wmo:42043:1,2001-12-03T20:00:00Z,28.9818,-94.9186,2.0,314.3274112,8.429294158,-99999.0,'11133222,11111222,99999999' 
TABS,ioos:station:wmo:42043:1,2001-12-03T20:30:00Z,28.9818,-94.9186,2.0,343.5233676,5.182837061,-99999.0,'11133222,11111222,99999999' 
TABS,ioos:station:wmo:42043:1,2001-12-03T21:00:00Z,28.9818,-94.9186,2.0,327.2373583,4.970764529,-99999.0,'11133222,11111222,99999999' 
TABS,ioos:station:wmo:42043:1,2001-12-03T21:30:00Z,28.9818,-94.9186,2.0,355.5330618,1.925850461,-99999.0,'11133222,11111222,99999999' 
TABS,ioos:station:wmo:42043:1,2001-12-03T22:00:00Z,28.9818,-94.9186,2.0,100.560986,3.000833218,-99999.0,'11133222,11111222,99999999' 
TABS,ioos:station:wmo:42043:1,2001-12-03T22:30:00Z,28.9818,-94.9186,2.0,100.4441711,6.619675219,-99999.0,'11133222,11111222,99999999' 
TABS,ioos:station:wmo:42043:1,2001-12-03T23:00:00Z,28.9818,-94.9186,2.0,131.21261,10.06289223,-99999.0,'11111222,11111222,99999999' 
TABS,ioos:station:wmo:42043:1,2001-12-03T23:30:00Z,28.9818,-94.9186,2.0,139.2198462,19.12251291,-99999.0,'11111222,11111222,99999999' 
TABS,ioos:station:wmo:42043:1,2001-12-04T00:00:00Z,28.9818,-94.9186,2.0,147.9912196,18.62098279,-99999.0,'11111222,11111222,99999999' 
TABS,ioos:station:wmo:42043:1,2001-12-04T00:30:00Z,28.9818,-94.9186,2.0,153.4996041,27.67806713,-99999.0,'11111222,11111222,99999999' 
TABS,ioos:station:wmo:42043:1,2001-12-04T01:00:00Z,28.9818,-94.9186,2.0,163.1561923,29.26551725,-99999.0,'11111222,11111222,99999999' 
TABS,ioos:station:wmo:42043:1,2001-12-04T01:30:00Z,28.9818,-94.9186,2.0,169.0582015,26.23695867,-99999.0,'11111222,11111222,99999999' 
TABS,ioos:station:wmo:42043:1,2001-12-04T02:00:00Z,28.9818,-94.9186,2.0,175.3980588,27.92000179,-99999.0,'11111222,11111222,99999999' 
TABS,ioos:station:wmo:42043:1,2001-12-04T02:30:00Z,28.9818,-94.9186,2.0,187.9211869,36.49826571,-99999.0,'11111222,11111222,99999999' 
TABS,ioos:station:wmo:42043:1,2001-12-04T03:00:00Z,28.9818,-94.9186,2.0,189.1395836,35.63240099,-99999.0,'11111222,11111222,99999999' 
TABS,ioos:station:wmo:42043:1,2001-12-04T03:30:00Z,28.9818,-94.9186,2.0,187.7142949,38.21588413,-99999.0,'11111222,11111222,99999999' 
TABS,ioos:station:wmo:42043:1,2001-12-04T04:00:00Z,28.9818,-94.9186,2.0,187.0939934,32.30733199,-99999.0,'11111222,11111222,99999999' 
TABS,ioos:station:wmo:42043:1,2001-12-04T04:30:00Z,28.9818,-94.9186,2.0,180.9342376,25.75342501,-99999.0,'11111222,11111222,99999999' 
TABS,ioos:station:wmo:42043:1,2001-12-04T05:00:00Z,28.9818,-94.9186,2.0,182.4576067,25.88381154,-99999.0,'11111222,11111222,99999999' 
TABS,ioos:station:wmo:42043:1,2001-12-04T05:30:00Z,28.9818,-94.9186,2.0,178.7602384,23.57551696,-99999.0,'11111222,11111222,99999999' 
TABS,ioos:station:wmo:42043:1,2001-12-04T06:00:00Z,28.9818,-94.9186,2.0,175.7125196,22.87400708,-99999.0,'11111222,11111222,99999999' 
TABS,ioos:station:wmo:42043:1,2001-12-04T06:30:00Z,28.9818,-94.9186,2.0,177.6265142,18.83615672,-99999.0,'11111222,11111222,99999999' 
TABS,ioos:station:wmo:42043:1,2001-12-04T07:00:00Z,28.9818,-94.9186,2.0,172.9614929,18.8520609,-99999.0,'11111222,11111222,99999999' 
TABS,ioos:station:wmo:42043:1,2001-12-04T07:30:00Z,28.9818,-94.9186,2.0,174.2977064,20.12960258,-99999.0,'11111222,11111222,99999999' 
TABS,ioos:station:wmo:42043:1,2001-12-04T08:00:00Z,28.9818,-94.9186,2.0,169.8104533,17.74994366,-99999.0,'11111222,11111222,99999999' 
TABS,ioos:station:wmo:42043:1,2001-12-04T08:30:00Z,28.9818,-94.9186,2.0,176.3768013,19.14826885,-99999.0,'11111222,11111222,99999999' 
TABS,ioos:station:wmo:42043:1,2001-12-04T09:00:00Z,28.9818,-94.9186,2.0,174.7510587,18.14608773,-99999.0,'11111222,11111222,99999999' 
TABS,ioos:station:wmo:42043:1,2001-12-04T09:30:00Z,28.9818,-94.9186,2.0,176.0002615,18.49504258,-99999.0,'11111222,11111222,99999999' 
TABS,ioos:station:wmo:42043:1,2001-12-04T10:00:00Z,28.9818,-94.9186,2.0,179.6034109,15.9003805,-99999.0,'11111222,11111222,99999999' 
TABS,ioos:station:wmo:42043:1,2001-12-04T10:30:00Z,28.9818,-94.9186,2.0,169.8328423,15.2392946,-99999.0,'11111222,11111222,99999999' 
TABS,ioos:station:wmo:42043:1,2001-12-04T11:00:00Z,28.9818,-94.9186,2.0,169.9380307,16.65617303,-99999.0,'11111222,11111222,99999999' 
TABS,ioos:station:wmo:42043:1,2001-12-04T11:30:00Z,28.9818,-94.9186,2.0,174.7617546,16.64952852,-99999.0,'11111222,11111222,99999999' 
TABS,ioos:station:wmo:42043:1,2001-12-04T12:00:00Z,28.9818,-94.9186,2.0,176.5739346,22.08947487,-99999.0,'11111222,11111222,99999999' 
TABS,ioos:station:wmo:42043:1,2001-12-04T12:30:00Z,28.9818,-94.9186,2.0,179.0628591,20.79278,-99999.0,'11111222,11111222,99999999' 
TABS,ioos:station:wmo:42043:1,2001-12-04T13:00:00Z,28.9818,-94.9186,2.0,180.8941393,21.78265365,-99999.0,'11111222,11111222,99999999' 
TABS,ioos:station:wmo:42043:1,2001-12-04T13:30:00Z,28.9818,-94.9186,2.0,186.9942911,20.69400879,-99999.0,'11111222,11111222,99999999' 
TABS,ioos:station:wmo:42043:1,2001-12-04T14:00:00Z,28.9818,-94.9186,2.0,198.2932248,19.21089535,-99999.0,'11111222,11111222,99999999' 
TABS,ioos:station:wmo:42043:1,2001-12-04T14:30:00Z,28.9818,-94.9186,2.0,214.7377525,17.74228001,-99999.0,'11111222,11111222,99999999' 
TABS,ioos:station:wmo:42043:1,2001-12-04T15:00:00Z,28.9818,-94.9186,2.0,223.3018706,22.67272591,-99999.0,'11111222,11111222,99999999' 
TABS,ioos:station:wmo:42043:1,2001-12-04T15:30:00Z,28.9818,-94.9186,2.0,229.1845907,22.09235162,-99999.0,'11111222,11111222,99999999' 
TABS,ioos:station:wmo:42043:1,2001-12-04T16:00:00Z,28.9818,-94.9186,2.0,236.8840649,19.64014766,-99999.0,'11111222,11111222,99999999' 